JNA001 RKSI-VTBS

Flight info

Callsign JNA001
Flight time N/A
Altitude 36000
Route BOPTA3H BOPTA Z51 BEDES Y711 MUGUS Y742 SALMI Q11 TACLE B591 HCN G86 KAPLI DCT MADRU DCT SULUX DCT IGLEG DCT IKELA/K0891F360 A1 PAPRA/N0480F360 A1 UBL Y20 GRASO Y13 RUKSA DCT EASTE EASTE1C
Aircraft B772/H-SDE1E2E3FGHIJ3J5M1P2WXYZ/LB1D1

Departure

Time 2026-05-06 11:34
Airport Incheon International Airport (RKSI)

Arrival

Time N/A
Airport Suvarnabhumi Airport (VTBS)
Time Latitude Longitude Altitude Speed Heading
2026-05-06 11:00 37.45424 126.45189 37 ft 0 kts 230°
2026-05-06 11:22 37.45429 126.45196 35 ft 4 kts 230°
2026-05-06 11:23 37.45447 126.45222 33 ft 4 kts 229°
2026-05-06 11:23 37.45464 126.45248 34 ft 4 kts 229°
2026-05-06 11:23 37.45478 126.45268 34 ft 3 kts 231°
2026-05-06 11:23 37.45487 126.45291 35 ft 4 kts 302°
2026-05-06 11:24 37.45474 126.45302 35 ft 4 kts 343°
2026-05-06 11:24 37.45448 126.45311 36 ft 4 kts 343°
2026-05-06 11:24 37.45422 126.45321 36 ft 3 kts 342°
2026-05-06 11:24 37.45418 126.45323 35 ft 0 kts 342°
2026-05-06 11:27 37.45422 126.45321 36 ft 4 kts 342°
2026-05-06 11:27 37.45485 126.45298 35 ft 11 kts 344°
2026-05-06 11:27 37.45561 126.45270 37 ft 11 kts 344°
2026-05-06 11:27 37.45634 126.45232 37 ft 11 kts 328°
2026-05-06 11:28 37.45673 126.45153 37 ft 11 kts 262°
2026-05-06 11:28 37.45631 126.45061 37 ft 15 kts 237°
2026-05-06 11:28 37.45552 126.44924 37 ft 23 kts 234°
2026-05-06 11:28 37.45447 126.44738 37 ft 27 kts 234°
2026-05-06 11:29 37.45336 126.44545 37 ft 27 kts 235°
2026-05-06 11:29 37.45228 126.44350 37 ft 27 kts 234°
2026-05-06 11:29 37.45117 126.44156 37 ft 27 kts 234°
2026-05-06 11:29 37.45035 126.44024 37 ft 14 kts 213°
2026-05-06 11:30 37.44960 126.44039 37 ft 11 kts 156°
2026-05-06 11:30 37.44895 126.44098 37 ft 14 kts 143°
2026-05-06 11:30 37.44818 126.44169 35 ft 14 kts 144°
2026-05-06 11:30 37.44740 126.44238 37 ft 14 kts 144°
2026-05-06 11:31 37.44663 126.44308 37 ft 14 kts 144°
2026-05-06 11:31 37.44586 126.44376 37 ft 14 kts 144°
2026-05-06 11:31 37.44530 126.44422 37 ft 6 kts 159°
2026-05-06 11:31 37.44489 126.44404 37 ft 8 kts 224°
2026-05-06 11:32 37.44454 126.44352 37 ft 8 kts 233°
2026-05-06 11:32 37.44423 126.44297 37 ft 8 kts 235°
2026-05-06 11:32 37.44392 126.44240 37 ft 8 kts 235°
2026-05-06 11:32 37.44366 126.44192 37 ft 5 kts 244°
2026-05-06 11:33 37.44375 126.44154 37 ft 5 kts 303°
2026-05-06 11:33 37.44468 126.44060 37 ft 31 kts 324°
2026-05-06 11:33 37.44816 126.43751 36 ft 97 kts 324°
2026-05-06 11:33 37.45550 126.43100 40 ft 158 kts 325°
2026-05-06 11:34 37.46538 126.42250 414 ft 182 kts 322°
2026-05-06 11:34 37.47573 126.41297 1247 ft 182 kts 316°
2026-05-06 11:34 37.48379 126.40095 1799 ft 179 kts 302°
2026-05-06 11:34 37.49167 126.38809 2034 ft 196 kts 304°
2026-05-06 11:35 37.50041 126.37347 2043 ft 219 kts 296°
2026-05-06 11:35 37.50462 126.35452 2056 ft 232 kts 272°
2026-05-06 11:35 37.50524 126.33335 2071 ft 248 kts 270°
2026-05-06 11:35 37.50534 126.31174 2060 ft 247 kts 270°
2026-05-06 11:36 37.50574 126.29047 2001 ft 241 kts 270°
2026-05-06 11:36 37.50791 126.26962 1890 ft 243 kts 281°
2026-05-06 11:36 37.51009 126.24862 1883 ft 243 kts 261°
2026-05-06 11:36 37.50340 126.22895 2325 ft 251 kts 227°
2026-05-06 11:37 37.48963 126.21667 3219 ft 236 kts 200°
2026-05-06 11:37 37.47365 126.21406 3843 ft 235 kts 182°
2026-05-06 11:37 37.45717 126.21460 3981 ft 239 kts 181°
2026-05-06 11:37 37.44075 126.21504 4002 ft 242 kts 181°
2026-05-06 11:38 37.42374 126.21538 4007 ft 245 kts 181°
2026-05-06 11:38 37.40676 126.21601 3997 ft 243 kts 181°
2026-05-06 11:38 37.38992 126.21681 3999 ft 241 kts 181°
2026-05-06 11:38 37.37315 126.21749 3997 ft 242 kts 181°
2026-05-06 11:39 37.35634 126.21790 4019 ft 242 kts 181°
2026-05-06 11:39 37.33947 126.21854 4000 ft 242 kts 181°
2026-05-06 11:39 37.32269 126.21932 3992 ft 240 kts 181°
2026-05-06 11:39 37.30602 126.21997 4000 ft 239 kts 181°
2026-05-06 11:40 37.28925 126.22061 3998 ft 242 kts 181°
2026-05-06 11:40 37.27240 126.22140 4004 ft 241 kts 181°
2026-05-06 11:40 37.25571 126.22225 3985 ft 239 kts 181°
2026-05-06 11:40 37.23896 126.22295 4001 ft 244 kts 181°
2026-05-06 11:41 37.22201 126.22354 4021 ft 246 kts 181°
2026-05-06 11:41 37.20496 126.22419 4003 ft 243 kts 181°
2026-05-06 11:41 37.18813 126.22492 3995 ft 240 kts 181°
2026-05-06 11:41 37.17151 126.22553 3980 ft 239 kts 181°
2026-05-06 11:42 37.15479 126.22600 3996 ft 240 kts 181°
2026-05-06 11:42 37.13807 126.22658 4009 ft 241 kts 182°
2026-05-06 11:42 37.12121 126.22728 3996 ft 243 kts 181°
2026-05-06 11:42 37.10435 126.22788 4005 ft 242 kts 181°
2026-05-06 11:43 37.08751 126.22840 4004 ft 241 kts 181°
2026-05-06 11:43 37.07084 126.22901 4004 ft 238 kts 181°
2026-05-06 11:43 37.05451 126.22986 3994 ft 238 kts 181°
2026-05-06 11:44 37.02102 126.23114 4017 ft 243 kts 181°
2026-05-06 11:44 37.00402 126.23181 4011 ft 245 kts 181°
2026-05-06 11:44 36.98697 126.23259 4001 ft 245 kts 181°
2026-05-06 11:44 36.97004 126.23323 3989 ft 243 kts 181°
2026-05-06 11:45 36.95322 126.23370 3996 ft 243 kts 182°
2026-05-06 11:45 36.93626 126.23433 4006 ft 243 kts 181°
2026-05-06 11:45 36.91961 126.23506 4000 ft 242 kts 181°
2026-05-06 11:45 36.90281 126.23570 3990 ft 241 kts 181°
2026-05-06 11:46 36.88601 126.23624 4004 ft 241 kts 181°
2026-05-06 11:46 36.86913 126.23686 4011 ft 242 kts 179°
2026-05-06 11:46 36.85306 126.24292 3994 ft 248 kts 150°
2026-05-06 11:46 36.84128 126.25868 3997 ft 254 kts 119°
2026-05-06 11:47 36.83652 126.28020 3999 ft 263 kts 92°
2026-05-06 11:47 36.83997 126.30235 3998 ft 262 kts 63°
2026-05-06 11:47 36.85144 126.31982 4016 ft 263 kts 33°
2026-05-06 11:47 36.86801 126.32875 4007 ft 259 kts
2026-05-06 11:48 36.88573 126.33300 4005 ft 261 kts
2026-05-06 11:48 36.90357 126.33711 4008 ft 260 kts
2026-05-06 11:48 36.92102 126.34089 3999 ft 256 kts
2026-05-06 11:48 36.93858 126.34470 3997 ft 256 kts
2026-05-06 11:49 36.95621 126.34853 3999 ft 257 kts
2026-05-06 11:49 36.97391 126.35248 4004 ft 258 kts
2026-05-06 11:49 36.99163 126.35626 3998 ft 258 kts
2026-05-06 11:49 37.00934 126.36024 4004 ft 258 kts
2026-05-06 11:50 37.02699 126.35959 4002 ft 253 kts 338°
2026-05-06 11:50 37.04221 126.34939 4023 ft 248 kts 320°
2026-05-06 11:50 37.05614 126.33661 3999 ft 252 kts 320°
2026-05-06 11:50 37.07002 126.32345 3996 ft 248 kts 319°
2026-05-06 11:51 37.08363 126.31036 3990 ft 246 kts 320°
2026-05-06 11:51 37.09713 126.29714 4001 ft 246 kts 319°
2026-05-06 11:51 37.11062 126.28380 3996 ft 246 kts 317°
2026-05-06 11:51 37.12406 126.27093 4016 ft 245 kts 320°
2026-05-06 11:52 37.13761 126.25791 4000 ft 246 kts 319°
2026-05-06 11:52 37.15129 126.24504 4001 ft 246 kts 320°
2026-05-06 11:52 37.16272 126.22980 3997 ft 236 kts 293°
2026-05-06 11:52 37.16628 126.21008 4027 ft 233 kts 264°
2026-05-06 11:53 37.16094 126.19088 3994 ft 239 kts 233°
2026-05-06 11:53 37.14806 126.17770 4003 ft 243 kts 204°
2026-05-06 11:53 37.13141 126.17463 4018 ft 247 kts 175°
2026-05-06 11:53 37.12048 126.17871 4000 ft 250 kts 156°
2026-05-06 11:54 37.10188 126.19594 3992 ft 249 kts 142°
2026-05-06 11:54 37.08882 126.21005 3994 ft 253 kts 142°
2026-05-06 11:54 37.07994 126.22007 3997 ft 255 kts 141°
2026-05-06 11:54 37.06242 126.23964 3995 ft 255 kts 141°
2026-05-06 11:55 37.05347 126.24967 3994 ft 256 kts 142°
2026-05-06 11:55 37.03591 126.26927 3992 ft 253 kts 142°
2026-05-06 11:55 37.02701 126.27915 3992 ft 252 kts 141°
2026-05-06 11:55 37.01553 126.29204 3987 ft 250 kts 141°
2026-05-06 11:56 37.00253 126.30652 3993 ft 250 kts 141°
2026-05-06 11:56 36.98959 126.32113 3999 ft 250 kts 141°
2026-05-06 11:56 36.97672 126.33587 4004 ft 251 kts 140°
2026-05-06 11:56 36.96380 126.35052 4000 ft 251 kts 142°
2026-05-06 11:57 36.95101 126.36549 3992 ft 251 kts 137°
2026-05-06 11:57 36.94183 126.38386 4005 ft 255 kts 108°
2026-05-06 11:57 36.94096 126.40603 3991 ft 265 kts 78°
2026-05-06 11:57 36.94847 126.42678 4017 ft 261 kts 56°
2026-05-06 11:58 36.95921 126.44522 3992 ft 265 kts 52°
2026-05-06 11:58 36.97052 126.46353 3997 ft 265 kts 51°
2026-05-06 11:58 36.98189 126.48164 3992 ft 265 kts 51°
2026-05-06 11:58 36.99319 126.49967 3989 ft 262 kts 51°
2026-05-06 11:59 37.00434 126.51750 4001 ft 259 kts 51°
2026-05-06 11:59 37.01539 126.53524 3995 ft 257 kts 51°
2026-05-06 11:59 37.02648 126.55290 3994 ft 258 kts 51°
2026-05-06 11:59 37.03742 126.57041 3995 ft 253 kts 51°
2026-05-06 12:00 37.04816 126.58759 3990 ft 248 kts 51°
2026-05-06 12:00 37.05875 126.60437 3983 ft 246 kts 51°
2026-05-06 12:00 37.06962 126.62128 3988 ft 255 kts 46°
2026-05-06 12:00 37.08405 126.63408 3838 ft 253 kts 22°
2026-05-06 12:01 37.10017 126.64272 3731 ft 252 kts 21°
2026-05-06 12:01 37.11658 126.64878 3560 ft 242 kts
2026-05-06 12:01 37.13276 126.64544 3427 ft 231 kts 333°
2026-05-06 12:01 37.14765 126.63733 3352 ft 237 kts 334°
2026-05-06 12:02 37.16282 126.62903 3210 ft 237 kts 332°
2026-05-06 12:02 37.17779 126.62102 3112 ft 229 kts 333°
2026-05-06 12:02 37.19233 126.61331 3037 ft 227 kts 333°
2026-05-06 12:02 37.20663 126.60570 3006 ft 225 kts 334°
2026-05-06 12:03 37.22106 126.59872 2990 ft 219 kts 332°
2026-05-06 12:03 37.23560 126.59181 3016 ft 229 kts 340°
2026-05-06 12:03 37.25108 126.58629 3006 ft 231 kts 341°
2026-05-06 12:03 37.26648 126.58081 2993 ft 227 kts 341°
2026-05-06 12:04 37.28156 126.57541 2997 ft 223 kts 340°
2026-05-06 12:04 37.29554 126.56750 3009 ft 224 kts 324°
2026-05-06 12:04 37.30836 126.55665 3001 ft 216 kts 320°
2026-05-06 12:04 37.32025 126.54597 2885 ft 209 kts 320°
2026-05-06 12:05 37.33195 126.53548 2615 ft 206 kts 319°
2026-05-06 12:05 37.34339 126.52529 2331 ft 196 kts 318°
2026-05-06 12:05 37.35415 126.51572 2088 ft 181 kts 319°
2026-05-06 12:05 37.36391 126.50704 1858 ft 165 kts 317°
2026-05-06 12:06 37.37300 126.49890 1644 ft 158 kts 318°
2026-05-06 12:06 37.38214 126.49086 1413 ft 162 kts 317°
2026-05-06 12:06 37.39097 126.48283 1245 ft 158 kts 311°
2026-05-06 12:06 37.39921 126.47510 1050 ft 140 kts 318°
2026-05-06 12:07 37.40723 126.46832 838 ft 140 kts 317°
2026-05-06 12:07 37.41553 126.46086 657 ft 151 kts 320°
2026-05-06 12:07 37.42424 126.45316 434 ft 153 kts 319°
2026-05-06 12:07 37.43258 126.44571 250 ft 140 kts 320°
2026-05-06 12:08 37.44044 126.43868 93 ft 140 kts 320°
2026-05-06 12:08 37.44821 126.43176 38 ft 125 kts 324°
2026-05-06 12:08 37.45426 126.42627 37 ft 85 kts 324°
2026-05-06 12:08 37.45748 126.42355 37 ft 56 kts 325°
2026-05-06 12:09 37.45969 126.42246 37 ft 36 kts 354°
2026-05-06 12:09 37.46193 126.42207 37 ft 33 kts 340°
2026-05-06 12:09 37.46405 126.42029 37 ft 14 kts 325°
2026-05-06 12:09 37.46468 126.41982 37 ft 9 kts 348°
2026-05-06 12:10 37.46521 126.42016 37 ft 5 kts 45°
2026-05-06 12:10 37.46521 126.42017 37 ft 0 kts 46°